Location: Banksville Park
(38.5557°N, 75.1182°W)
Time: 04:21:28
(UTC+00:00)

Envisat - Pass Details

Date: 02 December 2020
Orbit: 764 x 766 km, 98.1° (Epoch: 16 January)

Event Time Altitude Azimuth Distance (km) Brightness Sun altitude
Rises 11:23:00 0° 6° (N) 3,240 6.1 -7.5°
Reaches altitude 10° 11:25:22 10° 1° (N) 2,310 5.3 -7.1°
Maximum altitude 11:30:14 48° 288° (WNW) 995 3.2 -6.2°
Drops below altitude 10° 11:35:05 10° 215° (SW) 2,294 5.4 -5.3°
Sets 11:37:26 0° 209° (SSW) 3,216 6.2 -4.9°
